TimeEDT,TemperatureF,Dew PointF,Humidity,Sea Level PressureIn,VisibilityMPH,Wind Direction,Wind SpeedMPH,Gust SpeedMPH,PrecipitationIn,Events,Conditions,WindDirDegrees,DateUTC
12:53 AM,68.0,59.0,73,30.08,10.0,NNE,6.9,-,N/A,,Clear,30,2013-08-23 04:53:00
1:53 AM,66.9,57.0,70,30.10,10.0,NE,4.6,-,N/A,,Clear,40,2013-08-23 05:53:00
2:53 AM,64.9,55.0,70,30.09,10.0,NE,4.6,-,N/A,,Clear,40,2013-08-23 06:53:00
3:53 AM,62.1,55.0,78,30.10,10.0,North,3.5,-,N/A,,Clear,350,2013-08-23 07:53:00
4:53 AM,60.1,55.9,86,30.10,10.0,Calm,Calm,-,N/A,,Clear,0,2013-08-23 08:53:00
5:53 AM,57.0,54.0,89,30.12,9.0,West,3.5,-,N/A,,Clear,280,2013-08-23 09:53:00
6:53 AM,54.0,52.0,93,30.13,6.0,Calm,Calm,-,N/A,,Clear,0,2013-08-23 10:53:00
7:03 AM,53.6,51.8,94,30.14,1.5,Calm,Calm,-,N/A,,Clear,0,2013-08-23 11:03:00
7:14 AM,55.4,53.6,94,30.14,3.0,Calm,Calm,-,N/A,,Clear,0,2013-08-23 11:14:00
7:53 AM,60.1,55.9,86,30.15,9.0,Calm,Calm,-,N/A,,Clear,0,2013-08-23 11:53:00
8:53 AM,64.9,55.0,70,30.17,10.0,NNW,3.5,-,N/A,,Clear,330,2013-08-23 12:53:00
9:53 AM,69.1,55.9,63,30.17,10.0,NNW,5.8,-,N/A,,Clear,330,2013-08-23 13:53:00
10:53 AM,73.0,57.9,59,30.17,10.0,Calm,Calm,-,N/A,,Clear,0,2013-08-23 14:53:00
11:53 AM,75.9,57.0,52,30.17,10.0,NNW,10.4,-,N/A,,Clear,330,2013-08-23 15:53:00
12:53 PM,79.0,55.9,45,30.17,10.0,North,6.9,-,N/A,,Clear,10,2013-08-23 16:53:00
1:53 PM,80.1,55.0,42,30.16,10.0,Variable,5.8,17.3,N/A,,Partly Cloudy,0,2013-08-23 17:53:00
2:53 PM,81.0,53.1,38,30.15,10.0,Variable,6.9,-,N/A,,Partly Cloudy,0,2013-08-23 18:53:00
3:53 PM,80.1,52.0,38,30.14,10.0,ENE,3.5,-,N/A,,Mostly Cloudy,60,2013-08-23 19:53:00
4:53 PM,80.1,53.1,39,30.14,10.0,NNE,3.5,-,N/A,,Mostly Cloudy,30,2013-08-23 20:53:00
5:53 PM,79.0,54.0,42,30.14,10.0,East,6.9,-,N/A,,Mostly Cloudy,90,2013-08-23 21:53:00
6:53 PM,77.0,53.1,43,30.15,10.0,East,12.7,-,N/A,,Mostly Cloudy,80,2013-08-23 22:53:00
7:53 PM,73.9,54.0,50,30.16,10.0,ENE,12.7,-,N/A,,Clear,60,2013-08-23 23:53:00
8:53 PM,70.0,55.0,59,30.17,10.0,East,10.4,-,N/A,,Clear,80,2013-08-24 00:53:00
9:53 PM,66.0,55.0,68,30.19,10.0,East,9.2,-,N/A,,Clear,80,2013-08-24 01:53:00
10:53 PM,64.9,53.1,65,30.21,10.0,East,4.6,-,N/A,,Clear,90,2013-08-24 02:53:00
11:53 PM,63.0,53.1,70,30.23,10.0,SE,3.5,-,N/A,,Clear,130,2013-08-24 03:53:00